FW0019 Weather Reports


time (UTC)temp
C
wind
direction
speed
KPH
gust
KPH
rain 1hr
cm
rain 24hr
cm
rain mn
cm
humidity
%
barometer
mb
20260906191514 21 126 4.8 9.7 0.00 0.08 0.08 78 880.7
20260906190014 21 115 8.0 20.9 0.00 0.08 0.08 78 880.8
20260906184514 21 153 9.7 16.1 0.00 0.08 0.08 73 880.9
20260906183016 22 141 9.7 16.1 0.00 0.08 0.08 72 880.9
20260906181512 22 120 8.0 12.9 0.00 0.08 0.08 71 880.9
20260906180010 22 120 6.4 12.9 0.00 0.08 0.08 72 880.9
20260906174510 21 155 6.4 8.0 0.00 0.08 0.08 74 880.8
20260906173005 21 121 4.8 8.0 0.00 0.08 0.08 75 880.8
20260906171504 21 126 4.8 11.3 0.00 0.08 0.08 77 880.8
20260906170005 20 90 3.2 12.9 0.00 0.08 0.08 78 880.6
20260906164602 20 123 8.0 12.9 0.00 0.08 0.08 78 880.4
20260906163100 20 123 6.4 14.5 0.00 0.08 0.08 79 880.3
20260906161557 20 156 8.0 16.1 0.00 0.08 0.08 82 880.3
20260906160055 20 91 6.4 14.5 0.00 0.08 0.08 83 880.2
20260906154554 20 115 6.4 11.3 0.00 0.08 0.08 85 880.2
20260906153053 19 144 3.2 6.4 0.00 0.08 0.08 85 880.2
20260906151607 19 136 4.8 11.3 0.00 0.08 0.08 84 880.1
20260906150057 18 140 3.2 8.0 0.00 0.08 0.08 87 880.1
20260906144550 18 138 3.2 4.8 0.00 0.08 0.08 89 880.1
20260906143106 18 107 1.6 6.4 0.00 0.08 0.08 89 880.0
20260906141548 17 105 1.6 8.0 0.00 0.08 0.08 90 879.8
20260906140050 17 68 0.0 4.8 0.00 0.08 0.08 91 879.6
20260906134553 17 112 0.0 6.4 0.00 0.08 0.08 90 879.4
20260906133046 17 115 1.6 8.0 0.00 0.08 0.08 91 879.2
20260906131549 17 92 1.6 6.4 0.00 0.08 0.08 91 879.2
20260906130051 17 112 3.2 8.0 0.00 0.08 0.08 90 879.1
20260906124547 17 122 1.6 8.0 0.00 0.08 0.08 90 879.0
20260906123112 17 133 3.2 6.4 0.00 0.08 0.08 91 879.0
20260906121544 17 104 6.4 11.3 0.00 0.08 0.08 91 879.0
20260906120042 17 136 3.2 6.4 0.08 0.08 0.08 91 879.1
20260906114542 17 128 1.6 8.0 0.08 0.08 0.08 90 879.2
20260906113042 17 113 4.8 8.0 0.08 0.08 0.08 89 879.2
20260906111539 17 69 3.2 12.9 0.08 0.08 0.08 86 879.3
20260906110037 17 109 6.4 12.9 0.00 0.00 0.00 82 879.2
20260906104535 17 117 8.0 14.5 0.00 0.00 0.00 81 879.2
20260906103033 17 98 4.8 9.7 0.00 0.00 0.00 78 879.1
20260906101530 18 102 6.4 14.5 0.00 0.00 0.00 71 879.1
20260906100028 18 107 8.0 14.5 0.00 0.00 0.00 70 879.1
20260906094523 18 119 6.4 11.3 0.00 0.00 0.00 65 879.1
20260906093023 19 111 4.8 12.9 0.00 0.00 0.00 59 879.1
20260906091520 19 132 8.0 16.1 0.00 0.00 0.00 59 879.2
20260906090018 19 113 9.7 16.1 0.00 0.00 0.00 60 879.3
20260906084518 19 117 8.0 14.5 0.00 0.00 0.00 59 879.2
20260906083016 19 108 8.0 12.9 0.00 0.00 0.00 59 879.5
20260906081515 19 101 3.2 12.9 0.00 0.00 0.00 60 879.6
20260906080024 19 111 6.4 12.9 0.00 0.00 0.00 61 879.6
20260906074511 20 121 3.2 11.3 0.00 0.00 0.00 61 879.7
20260906073008 20 70 6.4 12.9 0.00 0.00 0.00 59 879.9
20260906071507 20 105 8.0 12.9 0.00 0.00 0.00 60 879.9
20260906070005 19 87 3.2 8.0 0.00 0.00 0.00 61 879.8
20260906064506 19 119 3.2 6.4 0.00 0.00 0.00 62 879.9
20260906063004 19 119 0.0 4.8 0.00 0.00 0.00 61 879.9
20260906061504 19 119 1.6 6.4 0.00 0.00 0.00 62 879.8
20260906060003 19 98 1.6 6.4 0.00 0.00 0.00 63 879.9
20260906054503 19 113 3.2 6.4 0.00 0.00 0.00 63 879.9
20260906053001 19 109 3.2 8.0 0.00 0.00 0.00 64 880.0
20260906051503 19 130 3.2 6.4 0.00 0.00 0.00 63 879.9
20260906050100 19 126 3.2 11.3 0.00 0.00 0.00 62 880.0
20260906044600 19 103 6.4 12.9 0.00 0.00 0.00 62 880.0
20260906043102 19 109 8.0 14.5 0.00 0.00 0.00 61 880.0
20260906041602 19 114 6.4 12.9 0.00 0.00 0.00 61 879.9
20260906040058 19 108 8.0 12.9 0.00 0.00 0.00 60 879.7
20260906034557 19 102 9.7 14.5 0.00 0.00 0.00 59 879.6
20260906033109 20 136 9.7 16.1 0.00 0.00 0.00 58 879.5
20260906031555 20 96 6.4 17.7 0.00 0.00 0.00 57 879.4
20260906030055 20 123 11.3 17.7 0.00 0.00 0.00 56 879.3
20260906024556 20 135 12.9 20.9 0.00 0.00 0.00 56 879.2
20260906023056 21 103 11.3 19.3 0.00 0.00 0.00 55 879.1
20260906021558 21 122 12.9 20.9 0.00 0.00 0.00 55 879.3
20260906020104 22 111 11.3 22.5 0.00 0.00 0.00 53 879.3
20260906014554 22 146 12.9 22.5 0.00 0.00 0.00 52 879.4
20260906013058 23 107 11.3 22.5 0.00 0.00 0.00 50 879.5
20260906011601 23 106 11.3 22.5 0.00 0.00 0.00 48 879.5
20260906010049 23 142 12.9 24.1 0.00 0.00 0.00 48 879.5
20260906004556 25 120 8.0 29.0 0.00 0.00 0.00 46 879.6
20260906003047 25 135 14.5 29.0 0.00 0.00 0.00 45 879.5
20260906001548 25 126 14.5 24.1 0.00 0.00 0.00 45 879.5
20260906000053 25 165 14.5 25.7 0.00 0.00 0.00 44 879.5
20260905234547 26 163 16.1 27.4 0.00 0.00 0.00 42 879.4
20260905233044 26 95 16.1 29.0 0.00 0.00 0.00 40 879.6
20260905231543 26 66 9.7 29.0 0.00 0.00 0.00 42 879.6
20260905230041 26 107 9.7 20.9 0.00 0.00 0.00 39 879.6
20260905224548 26 154 16.1 30.6 0.00 0.00 0.00 40 879.6
20260905223039 26 74 11.3 25.7 0.00 0.00 0.00 40 879.7
20260905221538 26 136 17.7 29.0 0.00 0.00 0.00 39 879.6
20260905220037 26 148 14.5 25.7 0.00 0.00 0.00 40 879.9
20260905214536 26 159 12.9 32.2 0.00 0.00 0.00 40 880.1
20260905213035 26 131 11.3 30.6 0.00 0.00 0.00 39 880.2
20260905211544 26 116 6.4 25.7 0.00 0.00 0.00 39 880.3
20260905210033 26 121 12.9 27.4 0.00 0.00 0.00 42 880.4
20260905204537 25 134 16.1 25.7 0.00 0.00 0.00 41 880.4
20260905203031 25 132 12.9 25.7 0.00 0.00 0.00 42 880.5
20260905201531 26 155 12.9 32.2 0.00 0.00 0.00 40 880.5
20260905200032 26 138 16.1 29.0 0.00 0.00 0.00 39 880.4
20260905194527 26 117 9.7 19.3 0.00 0.00 0.00 39 880.6
20260905193025 26 152 16.1 32.2 0.00 0.00 0.00 39 880.8